sat.trackr.live / text

‹ back to catalog

STARLINK-1036

NORAD 44741 · 2019-074AE

PAYLOAD ACTIVE UNKNOWN

§ Identity

Operator
Country
US
Launch date
2019-11-11
Launch site
AFETR
Launch vehicle
Mass (kg)
RCS (m²)

Purposes: comms

External: N2YO · Heavens-Above · Gunter

§ Orbital elements

Epoch: 2026-09-20T06:00:02.000160Z

Period
90.48 min
Inclination
53.0367°
Eccentricity
0.0006318
Mean motion
15.91468337 rev/d
Perigee alt
294.0 km
Apogee alt
302.4 km
Semi-major
6,676.3 km
B*
3.7613e-4
RAAN
302.8937°
Arg perigee
9.5061°
Mean anomaly
115.9914°
Rev number
592

§ Raw data

STARLINK-10361 44741U 19074AE  26263.25002315  .00121203  16570-4  37613-3 0  99932 44741  53.0367 302.8937 0006318   9.5061 115.9914 15.91468337  5920

JSON: /api/v1/satellites/44741 · /tle

For live sub-satellite position, see the globe view (requires WebGL).

§ Visibility from observer

Set your observer location to see the next 7 days of passes ≥ 10°. The values pass through the URL so the page stays shareable.

No JS? Fill the form by hand. The geolocation button needs JavaScript.